Weather History for KRNH - August, 2012

Change the Weather History Date:

Monday, August 20, 2012

  Actual Average (KMSP) Record (KMSP)
Temperature  
Mean Temperature 57 °F 71 °F  
Max Temperature 73 °F 80 °F 97 °F (1972)
Min Temperature 41 °F 62 °F 40 °F (1950)
Degree Days  
Heating Degree Days 8 0  
Month to date heating degree days 0  
Since 1 June heating degree days 49  
Since 1 July heating degree days 5  
Cooling Degree Days 0 6  
Month to date cooling degree days 146  
Year to date cooling degree days 622  
Since 1 June cooling degree days 580  
Growing Degree Days 7 (Base 50)    
Moisture  
Dew Point 44 °F    
Average Humidity 68    
Maximum Humidity 100    
Minimum Humidity 31    
Precipitation  
Precipitation 0.00 in 0.14 in 2.23 in (1891)
Month to date precipitation 2.91  
Year to date precipitation 20.78  
Snow  
Snow 0.00 in 0.00 in 0.00 in ()
Month to date snowfall 0.0  
Since 1 June snowfall 0.0  
Since 1 July snowfall 0.0  
Snow Depth -    
Sea Level Pressure  
Sea Level Pressure 30.02 in    
Wind  
Wind Speed 1 mph (NW)    
Max Wind Speed 9 mph    
Max Gust Speed -    
Visibility 10 miles    
Events      
T = Trace of Precipitation, MM = Missing Value Source: NWS Daily Summary

Daily Weather History Graph

Daily Weather History Graph

Search for Another Location

Airport or City:

Trip Planner

Search our weather history database for the weather conditions in past years. The results will help you decide how hot, cold, wet, or windy it might be!

Date:

Astronomy

Aug. 20, 2012 Rise Set
Actual Time 6:18 AM CDT 8:07 PM CDT
Civil Twilight 5:46 AM CDT 8:39 PM CDT
Nautical Twilight 5:08 AM CDT 9:17 PM CDT
Astronomical Twilight 4:26 AM CDT 9:58 PM CDT
Moon 9:53 AM CDT (8/20) 9:16 PM CDT (8/20)
Length of Visible Light 14h 52m
Length of Day
13h 49m
Waxing Crescent, 11% of the Moon is Illuminated
Aug 20
Waxing Crescent
Aug 24
First Quarter
Aug 31
Full
Sep 8
Last Quarter
Sep 15
New

Hourly Weather History & Observations

Time (CDT) Temp. Windchill Dew Point Humidity Pressure Visibility Wind Dir Wind Speed Gust Speed Precip Events Conditions
12:15 AM 46.4 °F 45.2 °F 46.4 °F 100% 30.02 in 10.0 mi ENE 3.5 mph - N/A   Clear
12:35 AM 46.4 °F - 46.4 °F 100% 30.02 in 10.0 mi Calm Calm - N/A   Clear
12:55 AM 44.6 °F - 44.6 °F 100% 30.02 in 10.0 mi Calm Calm - N/A   Clear
1:15 AM 44.6 °F - 44.6 °F 100% 30.02 in 10.0 mi Calm Calm - N/A   Clear
1:35 AM 44.6 °F - 44.6 °F 100% 30.02 in 10.0 mi Calm Calm - N/A   Clear
1:55 AM 44.6 °F - 44.6 °F 100% 30.02 in 10.0 mi Calm Calm - N/A   Clear
2:15 AM 44.6 °F - 42.8 °F 93% 30.02 in 10.0 mi Calm Calm - N/A   Clear
2:35 AM 44.6 °F - 44.6 °F 100% 30.02 in 10.0 mi Calm Calm - N/A   Clear
2:55 AM 44.6 °F - 44.6 °F 100% 30.02 in 10.0 mi Calm Calm - N/A   Clear
3:15 AM 44.6 °F - 42.8 °F 93% 30.02 in 10.0 mi Calm Calm - N/A   Clear
3:35 AM 42.8 °F - 42.8 °F 100% 30.02 in 10.0 mi Calm Calm - N/A   Clear
3:55 AM 42.8 °F - 42.8 °F 100% 30.02 in 10.0 mi Calm Calm - N/A   Clear
4:15 AM 42.8 °F - 42.8 °F 100% 30.02 in 10.0 mi Calm Calm - N/A   Clear
4:35 AM 41.0 °F - 41.0 °F 100% 30.03 in 10.0 mi Calm Calm - N/A   Clear
4:55 AM 41.0 °F - 41.0 °F 100% 30.02 in 7.0 mi Calm Calm - N/A   Clear
5:15 AM 42.8 °F - 42.8 °F 100% 30.02 in 7.0 mi Calm Calm - N/A   Clear
5:35 AM 41.0 °F - 41.0 °F 100% 30.03 in 10.0 mi Calm Calm - N/A   Clear
5:55 AM 41.0 °F - 41.0 °F 100% 30.03 in 10.0 mi Calm Calm - N/A   Clear
6:15 AM 41.0 °F - 41.0 °F 100% 30.03 in 10.0 mi Calm Calm - N/A   Clear
6:35 AM 41.0 °F - 41.0 °F 100% 30.03 in 10.0 mi Calm Calm - N/A   Clear
6:55 AM 41.0 °F - 41.0 °F 100% 30.04 in 10.0 mi Calm Calm - N/A   Clear
7:15 AM 44.6 °F - 44.6 °F 100% 30.04 in 10.0 mi Calm Calm - N/A   Clear
7:35 AM 46.4 °F - 46.4 °F 100% 30.04 in 10.0 mi Calm Calm - N/A   Clear
7:55 AM 50.0 °F - 48.2 °F 94% 30.04 in 10.0 mi Calm Calm - N/A   Clear
8:15 AM 51.8 °F - 50.0 °F 94% 30.04 in 10.0 mi Calm Calm - N/A   Clear
8:35 AM 53.6 °F - 50.0 °F 88% 30.04 in 10.0 mi Calm Calm - N/A   Clear
8:55 AM 57.2 °F - 50.0 °F 77% 30.04 in 10.0 mi Calm Calm - N/A   Clear
9:15 AM 59.0 °F - 50.0 °F 72% 30.04 in 10.0 mi Calm Calm - N/A   Clear
9:35 AM 62.6 °F - 48.2 °F 59% 30.04 in 10.0 mi Calm Calm - N/A   Clear
9:55 AM 64.4 °F - 44.6 °F 49% 30.04 in 10.0 mi Calm Calm - N/A   Clear
10:15 AM 66.2 °F - 46.4 °F 49% 30.04 in 10.0 mi Calm Calm - N/A   Clear
10:35 AM 68.0 °F - 42.8 °F 40% 30.04 in 10.0 mi North 3.5 mph - N/A   Clear
10:55 AM 69.8 °F - 42.8 °F 38% 30.04 in 10.0 mi NNW 4.6 mph - N/A   Clear
11:15 AM 69.8 °F - 42.8 °F 38% 30.04 in 10.0 mi North 4.6 mph - N/A   Clear
11:35 AM 69.8 °F - 41.0 °F 35% 30.03 in 10.0 mi NNW 4.6 mph - N/A   Clear
11:55 AM 69.8 °F - 42.8 °F 38% 30.03 in 10.0 mi NNE 5.8 mph - N/A   Clear
12:15 PM 69.8 °F - 41.0 °F 35% 30.03 in 10.0 mi North 5.8 mph - N/A   Clear
12:35 PM 71.6 °F - 41.0 °F 33% 30.03 in 10.0 mi NW 9.2 mph - N/A   Clear
12:55 PM 71.6 °F - 41.0 °F 33% 30.02 in 10.0 mi North 3.5 mph - N/A   Mostly Cloudy
1:35 PM 71.6 °F - 41.0 °F 33% 30.02 in 10.0 mi NW 4.6 mph - N/A   Scattered Clouds
1:55 PM 71.6 °F - 39.2 °F 31% 30.02 in 10.0 mi Calm Calm - N/A   Scattered Clouds
2:15 PM 73.4 °F - 41.0 °F 31% 30.02 in 10.0 mi West 8.1 mph - N/A   Scattered Clouds
2:35 PM 73.4 °F - 41.0 °F 31% 30.02 in 10.0 mi North 5.8 mph - N/A   Scattered Clouds
2:55 PM 71.6 °F - 41.0 °F 33% 30.01 in 10.0 mi NNW 3.5 mph - N/A   Mostly Cloudy
3:15 PM 73.4 °F - 41.0 °F 31% 30.01 in 10.0 mi WNW 8.1 mph - N/A   Scattered Clouds
3:35 PM 73.4 °F - 41.0 °F 31% 30.01 in 10.0 mi WNW 5.8 mph - N/A   Scattered Clouds
3:55 PM 73.4 °F - 41.0 °F 31% 30.01 in 10.0 mi NW 3.5 mph - N/A   Scattered Clouds
4:15 PM 71.6 °F - 41.0 °F 33% 30.01 in 10.0 mi WNW 3.5 mph - N/A   Mostly Cloudy
4:35 PM 73.4 °F - 41.0 °F 31% 30.00 in 10.0 mi Calm Calm - N/A   Scattered Clouds
4:55 PM 73.4 °F - 41.0 °F 31% 30.00 in 10.0 mi WNW 4.6 mph - N/A   Clear
5:15 PM 73.4 °F - 41.0 °F 31% 30.00 in 10.0 mi NNW 5.8 mph - N/A   Clear
5:35 PM 73.4 °F - 41.0 °F 31% 29.99 in 10.0 mi Calm Calm - N/A   Clear
5:55 PM 73.4 °F - 41.0 °F 31% 29.99 in 10.0 mi West 4.6 mph - N/A   Clear
6:15 PM 71.6 °F - 42.8 °F 35% 29.99 in 10.0 mi West 3.5 mph - N/A   Clear
6:35 PM 71.6 °F - 42.8 °F 35% 29.99 in 10.0 mi West 3.5 mph - N/A   Clear
6:55 PM 71.6 °F - 42.8 °F 35% 29.99 in 10.0 mi Calm Calm - N/A   Clear
7:15 PM 71.6 °F - 44.6 °F 38% 29.99 in 10.0 mi Calm Calm - N/A   Clear
7:35 PM 69.8 °F - 44.6 °F 40% 29.99 in 10.0 mi WNW 3.5 mph - N/A   Clear
7:55 PM 64.4 °F - 50.0 °F 59% 30.00 in 10.0 mi West 3.5 mph - N/A   Clear
8:15 PM 62.6 °F - 50.0 °F 63% 30.00 in 10.0 mi West 3.5 mph - N/A   Clear
8:35 PM 59.0 °F - 50.0 °F 72% 30.01 in 10.0 mi Calm Calm - N/A   Clear
8:55 PM 59.0 °F - 50.0 °F 72% 30.01 in 10.0 mi Calm Calm - N/A   Clear
9:15 PM 57.2 °F - 51.8 °F 82% 30.02 in 10.0 mi WSW 3.5 mph - N/A   Clear
9:35 PM 55.4 °F - 50.0 °F 82% 30.02 in 10.0 mi Calm Calm - N/A   Clear
9:55 PM 55.4 °F - 51.8 °F 88% 30.02 in 10.0 mi Calm Calm - N/A   Clear
10:15 PM 53.6 °F - 51.8 °F 94% 30.02 in 10.0 mi Calm Calm - N/A   Clear
10:35 PM 53.6 °F - 51.8 °F 94% 30.02 in 10.0 mi Calm Calm - N/A   Clear
10:55 PM 51.8 °F - 50.0 °F 94% 30.02 in 10.0 mi Calm Calm - N/A   Clear
11:15 PM 51.8 °F - 50.0 °F 94% 30.03 in 10.0 mi Calm Calm - N/A   Clear
11:55 PM 50.0 °F - 50.0 °F 100% 30.04 in 10.0 mi Calm Calm - N/A   Clear